Home > Time Zones > World Clock > Weather > Egypt > Cairo > Past weeks

Flag for Egypt Weather past 2 weeks in Cairo, Egypt

Now
90 °F

Sunny.


Feels Like: 86 °F
Forecast: 66 / 88 °F
Wind: 6 mph from West

Location: Cairo Airport

Current Time: Oct 25, 2014 at 3:29:14 PM

Latest Report: Oct 25, 2014 at 2:30 PM


Visibility: 10 mi

Pressure: 29.92 "Hg

Humidity: 16%

Dew point: 37 °F

Location of CairoLocation

Historic Weather in Cairo — Graph

°F

Cairo temperature yesterday

Maximum temperature yesterday: 88 °F (at 1:00 PM)
Minimum temperature yesterday: 68 °F (at 5:30 AM)
Average temperature yesterday: 78 °F

Past Weeks' High & Low Weather Summary

 TemperatureHumidityPressure
High91 °F (Oct 25, 12:00 PM)100% (Oct 18, 12:00 AM)30.15 "Hg (Oct 18, 12:00 AM)
Low36 °F (Oct 18, 12:00 AM)15% (Oct 25, 1:00 PM)29.80 "Hg (Oct 19, 3:00 PM)
Average75 °F52%29.99 "Hg
* Reported Oct 10 2:00 PM — Oct 25 2:30 PM, Cairo, Weather by CustomWeather, © 2014

Note: Actual official high and low records may vary slightly from our data, if they occured in-between our weather recording intervals... More about our weather records

Advertising

Cairo weather history for previous 24 hours

 ConditionsComfort  
Time TempWeatherWind HumidityBarometerVisibility
2:30 PM
Oct 25
90 °FSunny.6 mph16%29.92 "Hg10 mi
2:00 PM91 °FSunny.2 mph16%29.92 "Hg10 mi
1:30 PM91 °FSunny.1 mph17%29.92 "Hg10 mi
1:00 PM91 °FSunny.1 mph15%29.92 "Hg10 mi
12:30 PM90 °FClear.2 mph17%29.95 "Hg4 mi
12:00 PM91 °FClear.No wind17%29.95 "Hg4 mi
11:30 AM90 °FClear.3 mph18%29.95 "Hg4 mi
11:00 AM88 °FSunny.6 mph19%29.98 "Hg4 mi
10:30 AM90 °FSunny.1 mph17%29.98 "Hg10 mi
10:00 AM88 °FSunny.5 mph18%29.98 "Hg10 mi
9:30 AM86 °FSunny.7 mph19%29.98 "Hg10 mi
9:00 AM86 °FSunny.8 mph20%29.98 "Hg10 mi
8:30 AM84 °FSunny.8 mph22%29.98 "Hg10 mi
8:00 AM81 °FSunny.9 mph24%29.98 "Hg10 mi
7:30 AM79 °FSunny.12 mph26%29.98 "Hg10 mi
7:00 AM77 °FSunny.9 mph28%29.98 "Hg10 mi
6:30 AM75 °FSunny.10 mph29%29.98 "Hg10 mi
6:00 AM73 °FClear.10 mph33%29.98 "Hg10 mi
5:30 AM73 °FClear.10 mph33%29.98 "Hg10 mi
5:00 AM73 °FClear.9 mph33%29.98 "Hg10 mi
4:30 AM72 °FClear.7 mph36%29.98 "Hg10 mi
4:00 AM72 °FClear.7 mph36%29.98 "Hg10 mi
3:30 AM72 °FClear.8 mph36%29.98 "Hg10 mi
3:00 AM72 °FClear.8 mph36%29.98 "Hg10 mi
2:30 AM72 °FClear.7 mph36%29.98 "Hg10 mi
2:00 AM73 °FClear.7 mph33%29.98 "Hg10 mi
1:30 AM73 °FClear.7 mph33%29.98 "Hg10 mi
1:00 AM75 °FClear.7 mph41%29.98 "Hg10 mi
12:30 AM75 °FClear.9 mph34%30.01 "Hg10 mi
12:00 AM75 °FClear.9 mph34%30.01 "Hg10 mi
11:30 PM
Oct 24
77 °FClear.15 mph32%30.01 "Hg10 mi
11:00 PM77 °FClear.15 mph32%30.01 "Hg10 mi
10:30 PM77 °FClear.10 mph28%30.01 "Hg10 mi
10:00 PM77 °FClear.10 mph28%30.01 "Hg10 mi
9:30 PM77 °FClear.7 mph28%30.01 "Hg10 mi
9:00 PM77 °FClear.7 mph28%30.01 "Hg10 mi
8:30 PM79 °FClear.7 mph26%30.01 "Hg10 mi
8:00 PM79 °FClear.7 mph26%30.01 "Hg10 mi
7:30 PM81 °FClear.6 mph24%29.98 "Hg10 mi
7:00 PM81 °FClear.6 mph24%29.98 "Hg10 mi
6:30 PM82 °FClear.6 mph25%29.98 "Hg10 mi
6:00 PM84 °FClear.No wind22%29.98 "Hg10 mi
5:30 PM84 °FClear.6 mph23%29.98 "Hg10 mi
5:00 PM86 °FSunny.3 mph22%29.98 "Hg10 mi
4:30 PM86 °FSunny.6 mph20%29.95 "Hg10 mi
4:00 PM86 °FSunny.No wind22%29.95 "Hg10 mi
3:30 PM88 °FSunny.No wind19%29.95 "Hg10 mi
3:00 PM88 °FSunny.No wind21%29.98 "Hg10 mi
Weather by CustomWeather, © 2014

See weather overviewHow to use our weather pages